Regional Weather Roundup
Issued by NWS Portland, ME

Home | Current Version | Previous Version | Text Only | Print | Product List | Glossary On
Versions: 1 2 3 4 5 6 7 8 9 10 11 12 13 14 15 16 17 18 19 20 21 22 23 24 25 26 27 28 29 30 31 32 33 34 35 36 37 38 39 40 41 42 43 44 45 46 47 48 49 50
000
ASUS41 KGYX 300510
RWRGYX
WEATHER ROUNDUP FOR MAINE AND NEW HAMPSHIRE
NATIONAL WEATHER SERVICE GRAY ME
100 AM EDT MON MAY 30 2016

MEZ002-005-006-010-012-015-018-020-021-024-026-027-029-300600-
MAINE

CITY           SKY/WX    TMP DP  RH WIND       PRES   REMARKS
PORTLAND       CLOUDY    51  50  96 SE3       30.13F FOG
SANFORD        CLOUDY    50  46  87 CALM      30.14F VSB 1/2
BAR HARBOR     CLOUDY    48  47  96 SE6       30.15F FOG
WISCASSET      CLOUDY    50  49  96 SE3       30.14F FOG
ROCKLAND       LGT RAIN  49  49 100 E6        30.14F FOG
FRYEBURG       CLOUDY    51  50  96 VRB3      30.12F
LEWISTONAUBURN CLOUDY   N/A N/A N/A S3        30.12F
AUGUSTA        CLOUDY    50  49  96 S3        30.13F FOG
WATERVILLE     CLOUDY    50  49  96 VRB3      30.11F FOG
BANGOR         CLOUDY    51  48  89 S3        30.14F FOG
GREENVILLE       N/A     47  45  93 VRB5      30.06F
MILLINOCKET    CLOUDY    48  43  82 VRB3      30.12F
HOULTON        CLOUDY    50  42  74 S7        30.10F
PRESQUE ISLE   CLOUDY    51  44  77 S12       30.06F
FRENCHVILLE    CLOUDY    50  47  89 S9        30.03F
CARIBOU        CLOUDY    50  47  89 S7        30.05F
$$

NHZ002-005-008-009-011-012-014-300600-
NEW HAMPSHIRE

CITY           SKY/WX    TMP DP  RH WIND       PRES   REMARKS
PORTSMOUTH     CLOUDY    52  50  95 N3        30.12F FOG
ROCHESTER      FOG       51  49  92 CALM      30.12F VSB 1/2
NASHUA         CLOUDY    54  53  97 CALM      30.13F FOG
MANCHESTER     FOG       53  51  93 CALM      30.11F VSB 1
CONCORD        CLOUDY    53  50  89 CALM      30.12F
LACONIA        CLOUDY    55  52  89 SW5       30.12F
PLYMOUTH       CLOUDY    56  54  93 E5        30.10F FOG
BERLIN         PTCLDY    58  32  37 MISG      30.05F
WHITEFIELD     CLOUDY    60  57  89 CALM      30.04F FOG
JAFFREY        CLOUDY    54 N/A N/A CALM      30.11F HAZE
KEENE          CLOUDY   N/A N/A N/A CALM      30.10F
LEBANON        CLOUDY    61  58  90 CALM      30.05F
MT WASHINGTON  FOG       52  52 100 SW26        N/A  VSB 0
$$

VTZ005-007-008-300600-
VERMONT

CITY           SKY/WX    TMP DP  RH WIND       PRES   REMARKS
ST JOHNSBURY     N/A     63  57  81 MISG      30.02F
MONTPELIER     CLOUDY    61  59  93 S9        30.08S
BURLINGTON     FAIR      69  65  86 S7        29.96F
$$

MAZ007-012-024-CTZ003-RIZ002-NYZ038-NYZ072-300600-
SOUTHERN NEW ENGLAND AND NY

CITY           SKY/WX    TMP DP  RH WIND       PRES   REMARKS
BOSTON         DRIZZLE   53  52  96 CALM      30.13F FOG
WORCESTER      FOG       53  52  96 E6        30.11F VSB 1/4
NANTUCKET      LGT RAIN  61  59  93 SE8       30.11F VSB 1
PROVIDENCE     LGT RAIN  57  55  93 NE6       30.12F FOG
HARTFORD       CLOUDY    71  67  87 S7        30.05F
ALBANY         CLOUDY    71  66  84 S7        29.99F
NEW YORK CITY  LGT RAIN  71  71 100 S7        30.04F
$$

ANZ081-ANZ082-ANZ150-NHZ014-MEZ023>029-300600-
COASTAL MARINE OBSERVATIONS

STATION/POSITION TIME  TEMP    WIND        PRES    WAVE
                       AIR SEA DIR/SP/G            HT/PER
                 (UTC) (F)     (DEG/KT/KT) (MB)    (FT/S)
MOUNT DESERT ROC 0500   48     110/ 12/ 13 1020.6F
MATINICUS ROCK   0400   50     120/ 13/ 14 1020.6F
ISLE OF SHOALS   0400   51      CALM  /  2 1020.8F
JEFFREYS LEDGE   0408      54                N/A     3/ 6
CASHES LEDGE BUO 0450   50 50  150/  2/  4 1020.1F   4/ 6
GEORGES BANK BUO 0450   57 52              1020.8F   3/ 8
$$

.............KEY..............
   WCI - WIND CHILL
   TC  - TEMPERATURE IN CELSIUS
   VSB - VISIBILITY IN MILES
   HX  - HEAT INDEX
   FAIR- INDICATES FEW OR NO CLOUDS BELOW 12,000 FT, WITH NO
         SIGNIFICANT WEATHER AND/OR OBSTRUCTIONS TO VISIBILITY.






USA.gov is the U.S. government's official web portal to all federal, state and local government web resources and services.